Regional Weather Roundup
Issued by NWS Newport/Morehead, NC

Home | Current Version | Previous Version | Text Only | Print | Product List | Glossary On
Versions: 1 2 3 4 5 6 7 8 9 10 11 12 13 14 15 16 17 18 19 20 21 22 23 24 25 26 27 28 29 30 31 32 33 34 35 36 37 38 39 40 41 42 43 44 45 46 47 48 49 50
000
ASUS42 KMHX 011125
RWRMHX
WEATHER ROUNDUP FOR EASTERN NORTH CAROLINA
NATIONAL WEATHER SERVICE NEWPORT/MOREHEAD CITY NC
700 AM EDT SAT AUG 01 2015

NOTE: "FAIR" INDICATES FEW OR NO CLOUDS BELOW 12,000 FEET
WITH NO SIGNIFICANT WEATHER AND/OR OBSTRUCTIONS TO VISIBILITY

NCZ015>017-031-032-045>047-102-103-011200-
NORTH COAST

CITY           SKY/WX    TMP DP  RH WIND       PRES   REMARKS
EDENTON        CLEAR     70  67  89 CALM      29.92R
ELIZABETH CITY CLEAR     71  67  87 NW5       29.91R
KITTY HAWK     SUNNY     76  66  70 CALM      29.90R
MANTEO         PTCLDY    78  68  71 S6        29.92R

$$

NCZ045>047-081-094-103-104-011200-
CENTRAL COAST

CITY           SKY/WX    TMP DP  RH WIND       PRES   REMARKS
FRISCO         MOCLDY    78  71  79 SE9       29.91R
SWANQUARTER      N/A     75 N/A N/A E2        29.88S

$$

NCZ095-097-098-100-101-011200-
SOUTHERN COAST

CITY           SKY/WX    TMP DP  RH WIND       PRES   REMARKS
BEAUFORT       LGT RAIN  77  76  96 S9        29.92R
CEDAR ISLAND     N/A     79 N/A N/A CALM      29.94S
JACKSONVILLE   MOCLDY    74  72  93 SW3       29.92R
PINEY ISLAND   LGT RAIN N/A N/A N/A S3        29.91R
WILMINGTON     MOCLDY    75  73  93 CALM      29.92R


$$

NCZ011>013-027>030-043-044-078>080-089-090>093-098-011200-
COASTAL PLAIN

CITY           SKY/WX    TMP DP  RH WIND       PRES   REMARKS
AHOSKIE        CLEAR     65  64  96 CALM      29.93R
CLINTON        CLEAR     71  70  98 CALM      29.93R
ELIZABETHTOWN  PTCLDY    73  73  97 CALM      29.92S
GOLDSBORO      CLEAR     71  70  98 S1        29.91R
GREENVILLE     LGT RAIN  72  72 100 CALM      29.95R
HAVELOCK       CLOUDY    76  74  93 CALM      29.93R
KENANSVILLE    PTCLDY   N/A N/A N/A CALM      29.94R HAZE
KINSTON          N/A     72  72 100 CALM      29.94R FOG
NEW BERN       MOCLDY    75  73  93 CALM      29.93R
RICHLANDS      MOCLDY    72  66  83 CALM      29.93R
ROCKY MOUNT    CLEAR     69  68  96 CALM      29.93R FOG
WASHINGTON     PTCLDY    71  70  96 CALM      29.93R FOG
WHITEVILLE     PTCLDY    73  71  94 CALM      29.91S FOG

$$

AMZ130-135-150-152-154-156-158-170-250-252-270-ANZ085-086-088-633-658-670-011200-
MARINE OBSERVATIONS

STATION/POSITION TIME  TEMP    WIND        PRES    WAVE   SWELL
                       AIR SEA DIR/SP/G            HT/PER HT/PER
                 (UTC) (F)     (DEG/KT/KT) (MB)    (FT/S) (FT/S)
CHESAPEAKE LIGHT 1100   78     230/ 10/ 10 1013.3
64 E VA BEACH    1050   80 81  220/  8/  8 1012.4    3/ 8   3/ 8
DUCK             1100   79 76  180/  6/  7 1011.9
2 E DUCK         1011      78                N/A     2/ 8
OREGON INLET     1100   78 80  150/  4/  5 1013.0
13E OREGON INLT  1100      81                N/A     3/ 7
HATTERAS CG      1100   81 80  100/  4/  6 1012.7
DIAMOND BUOY     1050   80 85  130/ 16/ 17 1012.7    4/ 8   3/ 8
CAPE LOOKOUT     1100   76     140/ 11/ 13 1012.8
BEAUFORT LAB     1100   79 83   60/  1/  2 1012.2
30 SE NEW RVR IN NOT AVBL
27 SE WRIGHTSVLE 1100   76 82  260/  2/  4   N/A
5 SE WRIGHTSVLE  1008   80 83  300/  6/  8 1012.6
225 S CAPE HAT   1050   81 81  240/ 17/ 21 1015.3    7/ 7   2/12
41 SE CHARLESTON 1050   83 84  240/ 14/ 17 1011.9    4/ 7   2/ 7

$$



USA.gov is the U.S. government's official web portal to all federal, state and local government web resources and services.